Other Public Products
Issued by NWS Charleston, SC

Current Version | Previous Version | Text Only | Print | Product List | Glossary Off
Versions: 1 2 3 4 5 6 7 8 9 10 11 12 13 14 15 16 17 18 19 20 21 22 23 24 25 26 27 28 29 30 31 32 33 34 35 36 37 38 39 40 41 42 43 44 45 46 47 48 49 50

307
FPUS82 KCHS 231927
OPUCHS

TEST...KCHS/KSAV Gateway Observations...TEST
National Weather Service Charleston SC
300 PM EDT TUE MAY 23 2017

NOTE: "fair" indicates few or no clouds below 12,000 feet with no
significant weather and/or obstructions to visibility.

SCZ050-WAZ558-NCZ071-TXZ119-213-PAZ071-DCZ001-FLZ074-172-MI076-
NYZ176-178-MAZ016-IL014-TNZ027-NJZ106-GAZ044-MD014-232000-

...Gateway Observations for Charleston International...

CITY           SKY/WX    TMP DP  RH WIND       PRES   REMARKS
Chas Airport   CLOUDY    75  72  90 SW8       29.78S
Seattle        MOSUNNY   72  56  57 SW7       30.00S
Charlotte      LGT RAIN  69  65  86 SE6       29.76F
Dallas DFW     CLOUDY    74  59  59 NW17G23   29.86F
Dallas Love    CLOUDY    75  57  53 NW15      29.86F
Philladelphia  CLOUDY    66  52  60 E7        29.89F
Wash National  CLOUDY    67  60  78 E5        29.88F
Baltimore      CLOUDY    65  59  81 NE5       29.89F
Miami          MOSUNNY   88  71  57 SE16G25   29.93F HX  94
Detroit        PTSUNNY   72  50  45 SE8       29.78F
Newark         CLOUDY    69  46  43 NE5       29.88F
Laguardia      CLOUDY    69  47  45 CALM      29.89F
J F K          CLOUDY    69  49  48 CALM      29.90F
Boston Logan   CLOUDY    62  52  69 E8        29.85F
Ft. Lauderdale PTSUNNY   87  71  58 SE21      29.91F HX  93
Chicago O`Hare LGT RAIN  62  54  74 S5        29.74F
Chicago Midway LGT RAIN  63  54  72 CALM      29.75F
Houston Bush   MOSUNNY   83  65  54 CALM      29.80F
Houston Hobby  MOSUNNY   83  64  52 E6        29.80F
Nashville      PTSUNNY   78  59  51 E6        29.69F
Atlanta        CLOUDY    70  65  84 S8        29.75R

$$

GAZ044-118-TXZ119-213-NCZ071-DCZ001-MDZ014-506-PAZ021-071-NJZ106-
NYZ176-178-MAZ106-OHZ011-021-055-MIZ076-KYZ091-ILZ014-INZ047-
MNZ060-ONZ431-232000-

...Gateway Observations for Savannah International...

CITY           SKY/WX    TMP DP  RH WIND       PRES   REMARKS
Savannah Arpt  CLOUDY    78  72  81 SW7       29.78F
Atlanta        CLOUDY    70  65  84 S8        29.75R
Charlotte      LGT RAIN  69  65  86 SE6       29.76F
Dallas DFW     CLOUDY    74  59  59 NW17G23   29.86F
Houston Bush   MOSUNNY   83  65  54 CALM      29.80F
Wash National  CLOUDY    67  60  78 E5        29.88F
Wash Dulles    CLOUDY    64  55  72 N7        29.88F
Baltimore      CLOUDY    65  59  81 NE5       29.89F
Philadelphia   CLOUDY    66  52  60 E7        29.89F
Newark         CLOUDY    69  46  43 NE5       29.88F
Laguardia      CLOUDY    69  47  45 CALM      29.89F
J F K          CLOUDY    69  49  48 CALM      29.90F
Boston         CLOUDY    62  52  69 E8        29.85F
Pittsburg      CLOUDY    71  48  43 SE13      29.81F
Akron          MOSUNNY   73  45  36 E10       29.79F
Cleveland      MOSUNNY   77  46  33 E13       29.80F
Cincinnati     PTSUNNY   74  49  41 E9        29.72F
Columbus       MOSUNNY   72  48  42 SE7       29.73F
Detroit        PTSUNNY   72  50  45 SE8       29.78F
Chicago O`Hare LGT RAIN  62  54  74 S5        29.74F
Minneapolis    CLOUDY    60  42  51 NE13G22   29.80F
Indianapolis   CLOUDY    71  47  42 VRB5      29.72F
Toronto Canada PTSUNNY   72  50  46 W3        29.81F

$$




USA.gov is the U.S. government's official web portal to all federal, state and local government web resources and services.